Time,TemperatureF,DewpointF,PressureIn,WindDirection,WindDirectionDegrees,WindSpeedMPH,WindSpeedGustMPH,Humidity,HourlyPrecipIn,Conditions,Clouds,dailyrainin,SoftwareType,DateUTC
2013-02-08 00:00:00,34.5,31.3,29.90,SE,134,4.0,4.5,88,0.00,,BKN100,0.00,VWS V14.01,2013-02-08 08:00:00,
2013-02-08 00:06:00,34.5,31.3,29.90,SE,134,3.6,4.5,88,0.00,,SCT070,0.00,VWS V14.01,2013-02-08 08:06:00,
2013-02-08 00:11:00,35.1,31.9,29.90,SE,134,3.1,4.0,88,0.00,,SCT070,0.00,VWS V14.01,2013-02-08 08:11:00,
2013-02-08 00:16:00,35.4,32.5,29.90,SE,134,0.0,0.0,89,0.00,,SCT070,0.00,VWS V14.01,2013-02-08 08:16:00,
2013-02-08 00:21:00,35.6,32.7,29.90,SE,134,0.0,2.7,89,0.00,,SCT070,0.00,VWS V14.01,2013-02-08 08:21:00,
2013-02-08 00:26:00,35.4,32.5,29.90,SE,134,3.1,4.0,89,0.00,,SCT070,0.00,VWS V14.01,2013-02-08 08:26:00,
2013-02-08 00:31:00,35.8,32.9,29.90,SE,134,3.1,3.6,89,0.00,,SCT070,0.00,VWS V14.01,2013-02-08 08:31:00,
2013-02-08 00:36:00,36.3,33.7,29.90,SE,134,0.0,3.1,90,0.00,,SCT070,0.00,VWS V14.01,2013-02-08 08:36:00,
2013-02-08 00:41:00,36.7,34.0,29.90,SE,133,2.7,3.6,90,0.00,,SCT070,0.00,VWS V14.01,2013-02-08 08:41:00,
2013-02-08 00:46:00,37.0,34.7,29.90,SE,133,4.5,4.5,91,0.00,,SCT070,0.00,VWS V14.01,2013-02-08 08:46:00,
2013-02-08 00:52:00,37.0,34.4,29.90,SE,134,3.6,4.5,90,0.00,,SCT070,0.00,VWS V14.01,2013-02-08 08:52:00,
2013-02-08 00:57:00,36.3,33.4,29.90,SE,133,0.0,3.1,89,0.00,,SCT070,0.00,VWS V14.01,2013-02-08 08:57:00,
2013-02-08 01:02:00,35.8,32.6,29.87,SE,134,0.0,0.0,88,0.00,,SCT070,0.00,VWS V14.01,2013-02-08 09:02:00,
2013-02-08 01:07:00,36.0,32.8,29.87,SE,134,0.0,0.0,88,0.00,,SCT070,0.00,VWS V14.01,2013-02-08 09:07:00,
2013-02-08 01:12:00,35.4,32.2,29.87,SE,133,0.0,0.0,88,0.00,,SCT070,0.00,VWS V14.01,2013-02-08 09:12:00,
2013-02-08 01:17:00,35.4,31.9,29.87,SE,134,0.0,0.0,87,0.00,,SCT070,0.00,VWS V14.01,2013-02-08 09:17:00,
2013-02-08 01:22:00,35.2,32.0,29.87,SE,134,0.0,0.0,88,0.00,,SCT070,0.00,VWS V14.01,2013-02-08 09:22:00,
2013-02-08 01:27:00,34.9,31.7,29.87,SE,133,0.0,0.0,88,0.00,,SCT070,0.00,VWS V14.01,2013-02-08 09:27:00,
2013-02-08 01:32:00,33.8,30.4,29.87,SE,134,4.0,4.5,87,0.00,,SCT070,0.00,VWS V14.01,2013-02-08 09:32:00,
2013-02-08 01:37:00,33.8,30.4,29.87,SE,134,3.1,3.6,87,0.00,,SCT070,0.00,VWS V14.01,2013-02-08 09:37:00,
2013-02-08 01:42:00,33.8,30.6,29.87,SE,134,3.6,4.0,88,0.00,,SCT070,0.00,VWS V14.01,2013-02-08 09:42:00,
2013-02-08 01:47:00,33.4,30.3,29.87,SE,133,4.5,4.5,88,0.00,,SCT070,0.00,VWS V14.01,2013-02-08 09:47:00,
2013-02-08 01:52:00,33.3,30.4,29.87,SE,133,4.5,4.5,89,0.00,,SCT070,0.00,VWS V14.01,2013-02-08 09:52:00,
2013-02-08 01:57:00,33.3,30.4,29.87,SE,134,3.6,4.5,89,0.00,,SCT070,0.00,VWS V14.01,2013-02-08 09:57:00,
2013-02-08 02:02:00,32.9,30.3,29.87,SE,134,4.9,5.4,90,0.00,,FEW055,0.00,VWS V14.01,2013-02-08 10:02:00,
2013-02-08 02:07:00,32.7,30.1,29.87,SE,133,5.4,6.3,90,0.00,,FEW055,0.00,VWS V14.01,2013-02-08 10:07:00,
2013-02-08 02:12:00,32.7,30.4,29.87,SE,133,4.5,4.9,91,0.00,,FEW055,0.00,VWS V14.01,2013-02-08 10:12:00,
2013-02-08 02:17:00,32.5,30.2,29.87,SE,133,5.4,5.4,91,0.00,,FEW055,0.00,VWS V14.01,2013-02-08 10:17:00,
2013-02-08 02:22:00,32.2,29.9,29.87,SE,134,4.9,5.4,91,0.00,,FEW055,0.00,VWS V14.01,2013-02-08 10:22:00,
2013-02-08 02:27:00,32.0,29.7,29.87,SE,134,4.5,6.3,91,0.00,,FEW055,0.00,VWS V14.01,2013-02-08 10:27:00,
2013-02-08 02:32:00,31.8,29.8,29.84,SE,133,5.4,5.4,92,0.00,,FEW055,0.00,VWS V14.01,2013-02-08 10:32:00,
2013-02-08 02:37:00,32.0,29.9,29.84,SE,134,5.4,5.4,92,0.00,,FEW055,0.00,VWS V14.01,2013-02-08 10:37:00,
2013-02-08 02:42:00,32.5,30.7,29.84,SE,134,4.5,4.5,93,0.00,,FEW055,0.00,VWS V14.01,2013-02-08 10:42:00,
2013-02-08 02:47:00,32.5,30.7,29.84,SE,134,3.1,3.1,93,0.00,,FEW055,0.00,VWS V14.01,2013-02-08 10:47:00,
2013-02-08 02:52:00,32.7,30.9,29.84,SE,134,3.6,4.5,93,0.00,,FEW055,0.00,VWS V14.01,2013-02-08 10:52:00,
2013-02-08 02:57:00,33.1,31.3,29.84,NW,306,5.8,5.8,93,0.00,,FEW055,0.00,VWS V14.01,2013-02-08 10:57:00,
2013-02-08 03:02:00,33.3,31.5,29.84,WNW,303,0.0,0.0,93,0.00,,CLR,0.00,VWS V14.01,2013-02-08 11:02:00,
2013-02-08 03:08:00,33.1,31.3,29.84,WNW,303,0.0,3.1,93,0.00,,CLR,0.00,VWS V14.01,2013-02-08 11:08:00,
2013-02-08 03:13:00,32.7,30.9,29.84,WNW,303,0.0,3.1,93,0.00,,CLR,0.00,VWS V14.01,2013-02-08 11:13:00,
2013-02-08 03:18:00,32.2,30.4,29.84,WNW,302,0.0,0.0,93,0.00,,CLR,0.00,VWS V14.01,2013-02-08 11:18:00,
2013-02-08 03:23:00,31.8,29.8,29.84,WNW,302,0.0,0.0,92,0.00,,CLR,0.00,VWS V14.01,2013-02-08 11:23:00,
2013-02-08 03:28:00,31.3,29.0,29.84,WNW,303,3.1,4.5,91,0.00,,CLR,0.00,VWS V14.01,2013-02-08 11:28:00,
2013-02-08 03:33:00,31.5,29.4,29.84,WNW,303,3.6,4.5,92,0.00,,CLR,0.00,VWS V14.01,2013-02-08 11:33:00,
2013-02-08 03:38:00,31.5,29.4,29.84,WNW,303,3.6,3.6,92,0.00,,CLR,0.00,VWS V14.01,2013-02-08 11:38:00,
2013-02-08 03:43:00,31.8,30.0,29.84,WNW,303,3.1,3.6,93,0.00,,CLR,0.00,VWS V14.01,2013-02-08 11:43:00,
2013-02-08 03:49:00,32.4,30.8,29.84,WNW,303,3.6,3.6,94,0.00,,CLR,0.00,VWS V14.01,2013-02-08 11:49:00,
2013-02-08 03:54:00,32.5,31.0,29.84,WNW,303,3.6,4.0,94,0.00,,CLR,0.00,VWS V14.01,2013-02-08 11:54:00,
2013-02-08 03:59:00,33.1,31.5,29.84,WNW,303,3.1,3.6,94,0.00,,CLR,0.00,VWS V14.01,2013-02-08 11:59:00,
2013-02-08 04:04:00,32.7,31.5,29.84,WNW,303,3.6,4.0,95,0.00,,CLR,0.00,VWS V14.01,2013-02-08 12:04:00,
2013-02-08 04:10:00,32.7,31.5,29.84,WNW,303,3.1,3.6,95,0.00,,CLR,0.00,VWS V14.01,2013-02-08 12:10:00,
2013-02-08 04:15:00,32.7,31.5,29.84,WNW,303,3.1,4.0,95,0.00,,CLR,0.00,VWS V14.01,2013-02-08 12:15:00,
2013-02-08 04:20:00,32.9,31.6,29.84,WNW,302,3.1,3.6,95,0.00,,CLR,0.00,VWS V14.01,2013-02-08 12:20:00,
2013-02-08 04:25:00,32.9,31.6,29.84,WNW,303,3.1,4.0,95,0.00,,CLR,0.00,VWS V14.01,2013-02-08 12:25:00,
2013-02-08 04:30:00,33.3,32.0,29.84,WNW,302,0.0,0.0,95,0.00,,CLR,0.00,VWS V14.01,2013-02-08 12:30:00,
2013-02-08 04:35:00,33.6,32.3,29.84,WNW,302,0.0,0.0,95,0.00,,CLR,0.00,VWS V14.01,2013-02-08 12:35:00,
2013-02-08 04:40:00,33.3,32.0,29.84,WNW,303,0.0,0.0,95,0.00,,CLR,0.00,VWS V14.01,2013-02-08 12:40:00,
2013-02-08 04:45:00,33.3,32.0,29.84,WNW,303,3.1,3.6,95,0.00,,CLR,0.00,VWS V14.01,2013-02-08 12:45:00,
2013-02-08 04:50:00,33.6,32.3,29.84,WNW,303,0.0,0.0,95,0.00,,CLR,0.00,VWS V14.01,2013-02-08 12:50:00,
2013-02-08 04:55:00,33.6,32.3,29.84,WNW,303,0.0,0.0,95,0.00,,CLR,0.00,VWS V14.01,2013-02-08 12:55:00,
2013-02-08 05:00:00,33.6,32.3,29.84,WNW,303,4.0,4.0,95,0.00,,CLR,0.00,VWS V14.01,2013-02-08 13:00:00,
2013-02-08 05:05:00,34.0,32.7,29.84,WNW,302,0.0,2.7,95,0.00,,CLR,0.00,VWS V14.01,2013-02-08 13:05:00,
2013-02-08 05:10:00,34.3,33.1,29.84,WNW,303,0.0,0.0,95,0.00,,CLR,0.00,VWS V14.01,2013-02-08 13:10:00,
2013-02-08 05:16:00,34.7,33.4,29.84,WNW,303,3.1,3.1,95,0.00,,CLR,0.00,VWS V14.01,2013-02-08 13:16:00,
2013-02-08 05:21:00,35.1,33.8,29.84,WNW,303,0.0,0.0,95,0.00,,CLR,0.00,VWS V14.01,2013-02-08 13:21:00,
2013-02-08 05:26:00,35.1,33.8,29.84,WNW,303,0.0,0.0,95,0.00,,CLR,0.00,VWS V14.01,2013-02-08 13:26:00,
2013-02-08 05:31:00,35.2,34.0,29.84,WNW,303,0.0,0.0,95,0.00,,CLR,0.00,VWS V14.01,2013-02-08 13:31:00,
2013-02-08 05:36:00,35.4,34.1,29.84,WNW,303,0.0,0.0,95,0.00,,CLR,0.00,VWS V14.01,2013-02-08 13:36:00,
2013-02-08 05:41:00,35.6,34.3,29.84,WNW,303,0.0,0.0,95,0.00,,CLR,0.00,VWS V14.01,2013-02-08 13:41:00,
2013-02-08 05:46:00,36.0,34.9,29.87,WNW,303,0.0,0.0,96,0.00,,CLR,0.00,VWS V14.01,2013-02-08 13:46:00,
2013-02-08 05:51:00,35.8,34.8,29.87,NW,304,0.0,0.0,96,0.00,,CLR,0.00,VWS V14.01,2013-02-08 13:51:00,
2013-02-08 05:56:00,35.8,34.5,29.87,WNW,303,0.0,0.0,95,0.00,,CLR,0.00,VWS V14.01,2013-02-08 13:56:00,
2013-02-08 06:01:00,35.8,34.5,29.87,WNW,303,0.0,0.0,95,0.00,,BKN006,0.00,VWS V14.01,2013-02-08 14:01:00,
2013-02-08 06:06:00,36.0,34.7,29.87,WNW,303,3.6,3.6,95,0.00,,BKN006,0.00,VWS V14.01,2013-02-08 14:06:00,
2013-02-08 06:11:00,36.0,34.7,29.87,WNW,303,0.0,2.7,95,0.00,,BKN006,0.00,VWS V14.01,2013-02-08 14:11:00,
2013-02-08 06:16:00,36.1,34.8,29.87,WNW,303,0.0,0.0,95,0.00,,BKN006,0.00,VWS V14.01,2013-02-08 14:16:00,
2013-02-08 06:21:00,36.3,35.0,29.87,WNW,302,4.0,4.5,95,0.00,,BKN006,0.00,VWS V14.01,2013-02-08 14:21:00,
2013-02-08 06:26:00,36.5,35.2,29.87,WNW,302,3.6,4.5,95,0.00,,BKN006,0.00,VWS V14.01,2013-02-08 14:26:00,
2013-02-08 06:31:00,36.5,35.2,29.87,WNW,302,2.7,4.0,95,0.00,,CLR,0.00,VWS V14.01,2013-02-08 14:31:00,
2013-02-08 06:36:00,36.7,35.1,29.87,WNW,302,3.6,3.6,94,0.00,,CLR,0.00,VWS V14.01,2013-02-08 14:36:00,
2013-02-08 06:41:00,36.7,35.1,29.87,SE,141,3.6,5.8,94,0.00,,CLR,0.00,VWS V14.01,2013-02-08 14:41:00,
2013-02-08 06:46:00,36.7,35.1,29.87,SE,143,0.0,2.7,94,0.00,,CLR,0.00,VWS V14.01,2013-02-08 14:46:00,
2013-02-08 06:51:00,36.3,34.8,29.87,SE,142,0.0,0.0,94,0.00,,CLR,0.00,VWS V14.01,2013-02-08 14:51:00,
2013-02-08 06:56:00,36.0,34.1,29.87,SE,141,3.1,4.0,93,0.00,,CLR,0.00,VWS V14.01,2013-02-08 14:56:00,
2013-02-08 07:02:00,35.8,34.0,29.87,SE,142,4.0,4.9,93,0.00,,CLR,0.00,VWS V14.01,2013-02-08 15:02:00,
2013-02-08 07:08:00,35.6,33.8,29.87,SE,142,0.0,0.0,93,0.00,,CLR,0.00,VWS V14.01,2013-02-08 15:08:00,
2013-02-08 07:13:00,35.2,33.4,29.87,SE,142,0.0,0.0,93,0.00,,CLR,0.00,VWS V14.01,2013-02-08 15:13:00,
2013-02-08 07:18:00,35.1,33.0,29.87,SE,142,0.0,0.0,92,0.00,,CLR,0.00,VWS V14.01,2013-02-08 15:18:00,
2013-02-08 07:23:00,34.9,32.8,29.87,SE,141,2.7,4.5,92,0.00,,CLR,0.00,VWS V14.01,2013-02-08 15:23:00,
2013-02-08 07:28:00,34.9,32.8,29.87,SE,142,0.0,0.0,92,0.00,,CLR,0.00,VWS V14.01,2013-02-08 15:28:00,
2013-02-08 07:33:00,34.7,32.9,29.87,SE,142,0.0,0.0,93,0.00,,CLR,0.00,VWS V14.01,2013-02-08 15:33:00,
2013-02-08 07:38:00,34.5,32.7,29.87,SE,143,0.0,0.0,93,0.00,,CLR,0.00,VWS V14.01,2013-02-08 15:38:00,
2013-02-08 07:43:00,34.3,32.3,29.87,SE,142,0.0,0.0,92,0.00,,CLR,0.00,VWS V14.01,2013-02-08 15:43:00,
2013-02-08 07:48:00,34.5,32.7,29.87,SE,142,0.0,0.0,93,0.00,,CLR,0.00,VWS V14.01,2013-02-08 15:48:00,
2013-02-08 07:53:00,35.1,33.2,29.87,SE,143,0.0,0.0,93,0.00,,CLR,0.00,VWS V14.01,2013-02-08 15:53:00,
2013-02-08 07:58:00,35.2,33.4,29.87,SE,141,3.1,3.6,93,0.00,,CLR,0.00,VWS V14.01,2013-02-08 15:58:00,
2013-02-08 08:04:00,35.8,34.0,29.87,SE,142,0.0,0.0,93,0.00,,CLR,0.00,VWS V14.01,2013-02-08 16:04:00,
2013-02-08 08:09:00,36.1,34.3,29.87,SE,142,0.0,0.0,93,0.00,,CLR,0.00,VWS V14.01,2013-02-08 16:09:00,
2013-02-08 08:14:00,36.3,34.5,29.87,SE,142,0.0,0.0,93,0.00,,CLR,0.00,VWS V14.01,2013-02-08 16:14:00,
2013-02-08 08:19:00,36.7,34.8,29.87,SE,142,0.0,0.0,93,0.00,,CLR,0.00,VWS V14.01,2013-02-08 16:19:00,
2013-02-08 08:24:00,37.0,35.2,29.87,NNW,335,6.7,7.4,93,0.00,,CLR,0.00,VWS V14.01,2013-02-08 16:24:00,
2013-02-08 08:29:00,37.4,35.6,29.87,NNW,342,4.9,5.8,93,0.00,,CLR,0.00,VWS V14.01,2013-02-08 16:29:00,
2013-02-08 08:34:00,37.9,36.1,29.87,NW,307,6.3,6.3,93,0.00,,CLR,0.00,VWS V14.01,2013-02-08 16:34:00,
2013-02-08 08:39:00,38.1,36.3,29.87,NW,306,4.5,5.4,93,0.00,,CLR,0.00,VWS V14.01,2013-02-08 16:39:00,
2013-02-08 08:45:00,38.8,37.0,29.87,NW,307,4.0,5.4,93,0.00,,CLR,0.00,VWS V14.01,2013-02-08 16:45:00,
2013-02-08 08:50:00,39.4,37.5,29.87,NW,306,5.8,5.8,93,0.00,,CLR,0.00,VWS V14.01,2013-02-08 16:50:00,
2013-02-08 08:55:00,39.9,38.1,29.87,NW,306,5.4,5.8,93,0.00,,CLR,0.00,VWS V14.01,2013-02-08 16:55:00,
2013-02-08 09:00:00,40.5,38.6,29.87,NW,306,5.4,6.7,93,0.00,,CLR,0.00,VWS V14.01,2013-02-08 17:00:00,
2013-02-08 09:06:00,40.6,38.2,29.87,NNW,328,6.9,7.8,91,0.00,,CLR,0.00,VWS V14.01,2013-02-08 17:06:00,
2013-02-08 09:11:00,40.6,36.8,29.87,NNW,332,4.9,5.4,86,0.00,,CLR,0.00,VWS V14.01,2013-02-08 17:11:00,
2013-02-08 09:17:00,41.5,34.5,29.87,North,0,5.8,6.7,76,0.00,,CLR,0.00,VWS V14.01,2013-02-08 17:17:00,
2013-02-08 09:22:00,41.7,33.0,29.87,NNW,339,4.5,6.3,71,0.00,,CLR,0.00,VWS V14.01,2013-02-08 17:22:00,
2013-02-08 09:27:00,42.4,33.0,29.87,NNE,13,4.9,6.3,69,0.00,,CLR,0.00,VWS V14.01,2013-02-08 17:27:00,
2013-02-08 09:32:00,43.3,33.9,29.87,North,1,3.1,4.0,69,0.00,,CLR,0.00,VWS V14.01,2013-02-08 17:32:00,
2013-02-08 09:37:00,43.7,32.7,29.87,North,1,3.1,4.0,65,0.00,,CLR,0.00,VWS V14.01,2013-02-08 17:37:00,
2013-02-08 09:42:00,44.2,33.6,29.87,NNW,334,4.0,5.4,66,0.00,,CLR,0.00,VWS V14.01,2013-02-08 17:42:00,
2013-02-08 09:48:00,45.0,33.1,29.87,NNW,334,5.4,5.4,63,0.00,,CLR,0.00,VWS V14.01,2013-02-08 17:48:00,
2013-02-08 09:53:00,46.0,33.8,29.87,NNW,329,10.5,12.1,62,0.00,,CLR,0.00,VWS V14.01,2013-02-08 17:53:00,
2013-02-08 09:58:00,46.0,32.1,29.87,WNW,296,6.7,12.1,58,0.00,,CLR,0.00,VWS V14.01,2013-02-08 17:58:00,
2013-02-08 10:04:00,45.7,30.9,29.87,NNW,344,8.7,11.2,56,0.00,,CLR,0.00,VWS V14.01,2013-02-08 18:04:00,
2013-02-08 10:09:00,45.1,31.3,29.87,WNW,293,7.4,9.6,58,0.00,,CLR,0.00,VWS V14.01,2013-02-08 18:09:00,
2013-02-08 10:14:00,45.3,31.9,29.87,WNW,296,8.7,10.5,59,0.00,,CLR,0.00,VWS V14.01,2013-02-08 18:14:00,
2013-02-08 10:19:00,45.1,31.7,29.87,NW,310,4.9,7.8,59,0.00,,CLR,0.00,VWS V14.01,2013-02-08 18:19:00,
2013-02-08 10:25:00,45.3,31.4,29.87,NW,323,6.9,11.0,58,0.00,,CLR,0.00,VWS V14.01,2013-02-08 18:25:00,
2013-02-08 10:31:00,45.7,32.2,29.87,NW,311,6.9,7.8,59,0.00,,CLR,0.00,VWS V14.01,2013-02-08 18:31:00,
2013-02-08 10:36:00,45.7,31.8,29.87,NNW,336,6.7,7.8,58,0.00,,CLR,0.00,VWS V14.01,2013-02-08 18:36:00,
2013-02-08 10:41:00,46.0,31.7,29.87,NW,326,4.9,11.2,57,0.00,,CLR,0.00,VWS V14.01,2013-02-08 18:41:00,
2013-02-08 10:46:00,46.4,32.0,29.87,WNW,284,9.2,11.0,57,0.00,,CLR,0.00,VWS V14.01,2013-02-08 18:46:00,
2013-02-08 10:52:00,47.1,32.2,29.87,West,265,9.6,12.1,56,0.00,,CLR,0.00,VWS V14.01,2013-02-08 18:52:00,
2013-02-08 10:57:00,47.3,32.0,29.87,West,265,6.9,8.3,55,0.00,,CLR,0.00,VWS V14.01,2013-02-08 18:57:00,
2013-02-08 11:02:00,47.3,31.5,29.87,West,262,8.3,10.5,54,0.00,,SCT002,0.00,VWS V14.01,2013-02-08 19:02:00,
2013-02-08 11:07:00,47.5,31.7,29.87,WNW,283,10.1,10.1,54,0.00,,SCT002,0.00,VWS V14.01,2013-02-08 19:07:00,
2013-02-08 11:12:00,47.7,31.4,29.87,West,267,5.4,10.1,53,0.00,,SCT002,0.00,VWS V14.01,2013-02-08 19:12:00,
2013-02-08 11:17:00,48.0,31.7,29.87,WNW,290,9.2,9.2,53,0.00,,SCT002,0.00,VWS V14.01,2013-02-08 19:17:00,
2013-02-08 11:22:00,48.4,31.6,29.87,WSW,253,5.4,8.3,52,0.00,,SCT002,0.00,VWS V14.01,2013-02-08 19:22:00,
2013-02-08 11:27:00,48.7,31.4,29.87,WSW,251,9.6,16.8,51,0.00,,SCT002,0.00,VWS V14.01,2013-02-08 19:27:00,
2013-02-08 11:32:00,48.7,30.5,29.87,WSW,239,6.9,10.1,49,0.00,,SCT002,0.00,VWS V14.01,2013-02-08 19:32:00,
2013-02-08 11:37:00,49.1,30.8,29.87,NNW,331,11.2,13.9,49,0.00,,SCT002,0.00,VWS V14.01,2013-02-08 19:37:00,
2013-02-08 11:42:00,48.9,30.1,29.87,WNW,299,13.0,14.3,48,0.00,,SCT002,0.00,VWS V14.01,2013-02-08 19:42:00,
2013-02-08 11:47:00,49.5,30.6,29.87,WNW,284,8.3,12.1,48,0.00,,SCT002,0.00,VWS V14.01,2013-02-08 19:47:00,
2013-02-08 11:52:00,50.0,30.6,29.87,WNW,303,13.0,14.8,47,0.00,,SCT002,0.00,VWS V14.01,2013-02-08 19:52:00,
2013-02-08 11:57:00,50.2,30.2,29.87,WNW,289,12.1,14.8,46,0.00,,SCT002,0.00,VWS V14.01,2013-02-08 19:57:00,
2013-02-08 12:03:00,50.0,30.0,29.87,WNW,291,14.8,14.8,46,0.00,,CLR,0.00,VWS V14.01,2013-02-08 20:03:00,
2013-02-08 12:08:00,49.8,29.4,29.87,WNW,291,9.6,13.4,45,0.00,,CLR,0.00,VWS V14.01,2013-02-08 20:08:00,
2013-02-08 12:13:00,49.8,29.9,29.87,WNW,303,5.8,8.7,46,0.00,,CLR,0.00,VWS V14.01,2013-02-08 20:13:00,
2013-02-08 12:18:00,50.4,30.4,29.87,NW,306,9.2,15.2,46,0.00,,CLR,0.00,VWS V14.01,2013-02-08 20:18:00,
2013-02-08 12:23:00,50.4,29.8,29.87,WNW,293,8.3,10.1,45,0.00,,CLR,0.00,VWS V14.01,2013-02-08 20:23:00,
2013-02-08 12:28:00,50.4,30.4,29.87,NW,324,11.0,11.2,46,0.00,,CLR,0.00,VWS V14.01,2013-02-08 20:28:00,
2013-02-08 12:33:00,50.5,30.5,29.84,NNW,335,6.7,8.7,46,0.00,,CLR,0.00,VWS V14.01,2013-02-08 20:33:00,
2013-02-08 12:38:00,50.5,30.5,29.84,WNW,288,11.0,11.2,46,0.00,,CLR,0.00,VWS V14.01,2013-02-08 20:38:00,
2013-02-08 12:43:00,50.0,30.0,29.84,NW,320,6.9,11.6,46,0.00,,CLR,0.00,VWS V14.01,2013-02-08 20:43:00,
2013-02-08 12:48:00,49.6,30.2,29.84,WNW,298,6.9,12.5,47,0.00,,CLR,0.00,VWS V14.01,2013-02-08 20:48:00,
2013-02-08 12:53:00,49.8,31.4,29.84,NNW,341,8.3,12.5,49,0.00,,CLR,0.00,VWS V14.01,2013-02-08 20:53:00,
2013-02-08 12:59:00,50.2,30.8,29.84,WNW,301,4.5,6.7,47,0.00,,CLR,0.00,VWS V14.01,2013-02-08 20:59:00,
2013-02-08 13:05:00,51.3,31.2,29.84,West,276,6.9,9.2,46,0.00,,CLR,0.00,VWS V14.01,2013-02-08 21:05:00,
2013-02-08 13:10:00,51.6,30.4,29.84,NW,323,5.4,6.7,44,0.00,,CLR,0.00,VWS V14.01,2013-02-08 21:10:00,
2013-02-08 13:15:00,51.4,30.8,29.84,NNW,336,4.5,6.7,45,0.00,,CLR,0.00,VWS V14.01,2013-02-08 21:15:00,
2013-02-08 13:20:00,52.0,30.8,29.84,WNW,296,11.2,11.6,44,0.00,,CLR,0.00,VWS V14.01,2013-02-08 21:20:00,
2013-02-08 13:25:00,52.3,30.0,29.84,WNW,285,9.2,11.6,42,0.00,,CLR,0.00,VWS V14.01,2013-02-08 21:25:00,
2013-02-08 13:30:00,52.2,29.2,29.84,WNW,297,7.8,10.5,41,0.00,,CLR,0.00,VWS V14.01,2013-02-08 21:30:00,
2013-02-08 13:35:00,52.3,29.4,29.84,NW,321,5.8,5.8,41,0.00,,CLR,0.00,VWS V14.01,2013-02-08 21:35:00,
2013-02-08 13:40:00,52.5,29.5,29.84,North,0,7.4,10.1,41,0.00,,CLR,0.00,VWS V14.01,2013-02-08 21:40:00,
2013-02-08 13:45:00,52.9,29.8,29.84,WNW,290,6.9,9.2,41,0.00,,CLR,0.00,VWS V14.01,2013-02-08 21:45:00,
2013-02-08 13:50:00,52.9,28.6,29.84,NNW,331,8.3,10.5,39,0.00,,CLR,0.00,VWS V14.01,2013-02-08 21:50:00,
2013-02-08 13:55:00,52.9,28.0,29.84,WNW,287,4.5,7.8,38,0.00,,CLR,0.00,VWS V14.01,2013-02-08 21:55:00,
2013-02-08 14:00:00,53.2,27.7,29.81,WSW,249,6.9,9.2,37,0.00,,CLR,0.00,VWS V14.01,2013-02-08 22:00:00,
2013-02-08 14:05:00,53.6,28.0,29.81,WNW,293,8.3,9.6,37,0.00,,CLR,0.00,VWS V14.01,2013-02-08 22:05:00,
2013-02-08 14:10:00,54.0,28.3,29.81,NW,308,8.7,11.6,37,0.00,,CLR,0.00,VWS V14.01,2013-02-08 22:10:00,
2013-02-08 14:16:00,54.0,27.6,29.81,WNW,287,11.6,12.5,36,0.00,,CLR,0.00,VWS V14.01,2013-02-08 22:16:00,
2013-02-08 14:21:00,53.4,26.5,29.81,West,260,11.0,11.0,35,0.00,,CLR,0.00,VWS V14.01,2013-02-08 22:21:00,
2013-02-08 14:26:00,54.0,27.0,29.81,NW,316,8.3,11.2,35,0.00,,CLR,0.00,VWS V14.01,2013-02-08 22:26:00,
2013-02-08 14:31:00,54.1,26.4,29.81,West,263,6.7,7.8,34,0.00,,CLR,0.00,VWS V14.01,2013-02-08 22:31:00,
2013-02-08 14:36:00,54.0,27.0,29.81,West,273,9.2,11.6,35,0.00,,CLR,0.00,VWS V14.01,2013-02-08 22:36:00,
2013-02-08 14:41:00,53.8,25.4,29.81,West,266,9.6,12.5,33,0.00,,CLR,0.00,VWS V14.01,2013-02-08 22:41:00,
2013-02-08 14:46:00,54.0,26.2,29.81,NW,325,14.8,14.8,34,0.00,,CLR,0.00,VWS V14.01,2013-02-08 22:46:00,
2013-02-08 14:51:00,54.0,24.8,29.81,NW,320,9.2,14.3,32,0.00,,CLR,0.00,VWS V14.01,2013-02-08 22:51:00,
2013-02-08 14:56:00,54.0,24.0,29.81,West,265,9.2,14.3,31,0.00,,CLR,0.00,VWS V14.01,2013-02-08 22:56:00,
2013-02-08 15:01:00,53.6,22.9,29.81,West,280,7.8,18.1,30,0.00,,CLR,0.00,VWS V14.01,2013-02-08 23:01:00,
2013-02-08 15:06:00,53.1,23.2,29.81,WNW,295,10.1,10.1,31,0.00,,CLR,0.00,VWS V14.01,2013-02-08 23:06:00,
2013-02-08 15:11:00,53.2,24.9,29.81,WNW,287,9.6,13.4,33,0.00,,CLR,0.00,VWS V14.01,2013-02-08 23:11:00,
2013-02-08 15:16:00,53.6,23.7,29.81,WNW,295,7.4,12.5,31,0.00,,CLR,0.00,VWS V14.01,2013-02-08 23:16:00,
2013-02-08 15:22:00,53.4,22.8,29.81,NNW,337,11.0,17.7,30,0.00,,CLR,0.00,VWS V14.01,2013-02-08 23:22:00,
2013-02-08 15:27:00,53.4,22.8,29.81,WNW,301,9.2,14.8,30,0.00,,CLR,0.00,VWS V14.01,2013-02-08 23:27:00,
2013-02-08 15:32:00,53.1,22.5,29.81,NW,316,10.5,14.3,30,0.00,,CLR,0.00,VWS V14.01,2013-02-08 23:32:00,
2013-02-08 15:37:00,53.1,22.5,29.81,NW,321,8.3,12.1,30,0.00,,CLR,0.00,VWS V14.01,2013-02-08 23:37:00,
2013-02-08 15:43:00,53.1,22.5,29.81,NW,304,11.0,13.4,30,0.00,,CLR,0.00,VWS V14.01,2013-02-08 23:43:00,
2013-02-08 15:48:00,53.1,22.5,29.81,NW,317,11.0,15.4,30,0.00,,CLR,0.00,VWS V14.01,2013-02-08 23:48:00,
2013-02-08 15:53:00,53.1,22.5,29.81,WNW,301,11.0,13.0,30,0.00,,CLR,0.00,VWS V14.01,2013-02-08 23:53:00,
2013-02-08 15:58:00,52.9,22.3,29.81,WNW,301,10.5,16.3,30,0.00,,CLR,0.00,VWS V14.01,2013-02-08 23:58:00,
2013-02-08 16:03:00,52.9,22.3,29.81,NW,319,11.0,16.3,30,0.00,,CLR,0.00,VWS V14.01,2013-02-09 00:03:00,
2013-02-08 16:08:00,53.1,22.5,29.81,NNW,334,6.9,11.0,30,0.00,,CLR,0.00,VWS V14.01,2013-02-09 00:08:00,
2013-02-08 16:13:00,53.1,21.7,29.81,NW,321,18.6,19.0,29,0.00,,CLR,0.00,VWS V14.01,2013-02-09 00:13:00,
2013-02-08 16:18:00,53.1,20.8,29.81,NW,307,12.5,13.9,28,0.00,,CLR,0.00,VWS V14.01,2013-02-09 00:18:00,
2013-02-08 16:24:00,52.9,20.7,29.81,North,0,10.5,14.3,28,0.00,,CLR,0.00,VWS V14.01,2013-02-09 00:24:00,
2013-02-08 16:29:00,52.9,20.7,29.81,NW,318,9.2,11.0,28,0.00,,CLR,0.00,VWS V14.01,2013-02-09 00:29:00,
2013-02-08 16:34:00,52.9,21.5,29.81,NNW,338,8.7,11.2,29,0.00,,CLR,0.00,VWS V14.01,2013-02-09 00:34:00,
2013-02-08 16:39:00,52.7,21.4,29.81,WNW,288,9.6,13.4,29,0.00,,CLR,0.00,VWS V14.01,2013-02-09 00:39:00,
2013-02-08 16:44:00,52.3,21.0,29.81,NNW,330,6.7,6.7,29,0.00,,CLR,0.00,VWS V14.01,2013-02-09 00:44:00,
2013-02-08 16:49:00,52.2,20.9,29.81,NW,323,8.7,10.5,29,0.00,,CLR,0.00,VWS V14.01,2013-02-09 00:49:00,
2013-02-08 16:54:00,52.0,20.7,29.81,WNW,302,9.2,10.5,29,0.00,,CLR,0.00,VWS V14.01,2013-02-09 00:54:00,
2013-02-08 16:59:00,51.6,20.4,29.81,NNW,330,7.4,9.2,29,0.00,,CLR,0.00,VWS V14.01,2013-02-09 00:59:00,
2013-02-08 17:04:00,51.4,20.3,29.81,NW,315,15.4,15.4,29,0.00,,CLR,0.00,VWS V14.01,2013-02-09 01:04:00,
2013-02-08 17:09:00,51.1,20.0,29.81,WNW,284,5.4,10.1,29,0.00,,CLR,0.00,VWS V14.01,2013-02-09 01:09:00,
2013-02-08 17:15:00,50.7,20.4,29.81,NW,309,8.3,8.7,30,0.00,,CLR,0.00,VWS V14.01,2013-02-09 01:15:00,
2013-02-08 17:20:00,50.4,20.1,29.81,NNW,337,9.6,13.4,30,0.00,,CLR,0.00,VWS V14.01,2013-02-09 01:20:00,
2013-02-08 17:25:00,50.2,20.0,29.81,NW,317,10.1,13.4,30,0.00,,CLR,0.00,VWS V14.01,2013-02-09 01:25:00,
2013-02-08 17:30:00,49.8,19.6,29.81,NNW,327,11.6,12.5,30,0.00,,CLR,0.00,VWS V14.01,2013-02-09 01:30:00,
2013-02-08 17:36:00,49.6,19.5,29.81,NNW,329,12.1,13.0,30,0.00,,CLR,0.00,VWS V14.01,2013-02-09 01:36:00,
2013-02-08 17:41:00,49.5,19.3,29.81,NW,321,6.9,10.5,30,0.00,,CLR,0.00,VWS V14.01,2013-02-09 01:41:00,
2013-02-08 17:46:00,49.1,19.0,29.81,NW,310,6.9,10.5,30,0.00,,CLR,0.00,VWS V14.01,2013-02-09 01:46:00,
2013-02-08 17:51:00,48.7,19.5,29.81,NNW,344,9.6,9.6,31,0.00,,CLR,0.00,VWS V14.01,2013-02-09 01:51:00,
2013-02-08 17:56:00,48.7,19.5,29.81,NNW,337,9.2,10.5,31,0.00,,CLR,0.00,VWS V14.01,2013-02-09 01:56:00,
2013-02-08 18:01:00,48.6,19.3,29.81,NNW,345,6.7,8.3,31,0.00,,CLR,0.00,VWS V14.01,2013-02-09 02:01:00,
2013-02-08 18:06:00,48.4,19.2,29.81,NNW,335,5.8,6.9,31,0.00,,CLR,0.00,VWS V14.01,2013-02-09 02:06:00,
2013-02-08 18:11:00,47.8,19.4,29.81,NNW,337,4.5,6.3,32,0.00,,CLR,0.00,VWS V14.01,2013-02-09 02:11:00,
2013-02-08 18:16:00,47.5,19.8,29.81,NNW,345,4.0,6.3,33,0.00,,CLR,0.00,VWS V14.01,2013-02-09 02:16:00,
2013-02-08 18:21:00,47.3,20.4,29.81,NNW,347,4.9,6.3,34,0.00,,CLR,0.00,VWS V14.01,2013-02-09 02:21:00,
2013-02-08 18:26:00,47.1,20.2,29.81,North,351,4.9,5.4,34,0.00,,CLR,0.00,VWS V14.01,2013-02-09 02:26:00,
2013-02-08 18:31:00,46.6,20.4,29.81,North,2,6.7,6.9,35,0.00,,CLR,0.00,VWS V14.01,2013-02-09 02:31:00,
2013-02-08 18:36:00,46.0,21.2,29.81,North,351,0.0,0.0,37,0.00,,CLR,0.00,VWS V14.01,2013-02-09 02:36:00,
2013-02-08 18:42:00,43.7,20.4,29.81,NNW,345,3.1,3.1,39,0.00,,CLR,0.00,VWS V14.01,2013-02-09 02:42:00,
2013-02-08 18:47:00,42.1,20.1,29.84,NNW,346,4.5,4.5,41,0.00,,CLR,0.00,VWS V14.01,2013-02-09 02:47:00,
2013-02-08 18:52:00,41.4,21.1,29.84,NNW,346,3.6,4.5,44,0.00,,CLR,0.00,VWS V14.01,2013-02-09 02:52:00,
2013-02-08 18:57:00,41.0,21.3,29.84,North,351,3.1,3.6,45,0.00,,CLR,0.00,VWS V14.01,2013-02-09 02:57:00,
2013-02-08 19:02:00,40.1,21.5,29.84,North,351,4.0,4.0,47,0.00,,CLR,0.00,VWS V14.01,2013-02-09 03:02:00,
2013-02-08 19:07:00,39.4,21.8,29.84,NNW,347,3.6,4.0,49,0.00,,CLR,0.00,VWS V14.01,2013-02-09 03:07:00,
2013-02-08 19:12:00,38.8,21.8,29.84,NNW,346,4.0,4.0,50,0.00,,CLR,0.00,VWS V14.01,2013-02-09 03:12:00,
2013-02-08 19:17:00,38.1,21.6,29.84,NNW,347,4.0,4.5,51,0.00,,CLR,0.00,VWS V14.01,2013-02-09 03:17:00,
2013-02-08 19:22:00,37.6,21.6,29.84,North,351,4.5,4.9,52,0.00,,CLR,0.00,VWS V14.01,2013-02-09 03:22:00,
2013-02-08 19:27:00,37.4,21.9,29.84,North,351,4.0,4.5,53,0.00,,CLR,0.00,VWS V14.01,2013-02-09 03:27:00,
2013-02-08 19:32:00,37.2,22.1,29.84,North,351,4.0,4.5,54,0.00,,CLR,0.00,VWS V14.01,2013-02-09 03:32:00,
2013-02-08 19:37:00,36.9,21.8,29.84,NNW,347,4.0,4.9,54,0.00,,CLR,0.00,VWS V14.01,2013-02-09 03:37:00,
2013-02-08 19:43:00,36.5,21.9,29.84,NNW,345,4.5,4.5,55,0.00,,CLR,0.00,VWS V14.01,2013-02-09 03:43:00,
2013-02-08 19:48:00,36.3,22.1,29.84,North,351,4.5,4.5,56,0.00,,CLR,0.00,VWS V14.01,2013-02-09 03:48:00,
2013-02-08 19:53:00,35.8,21.6,29.84,North,351,4.5,4.5,56,0.00,,CLR,0.00,VWS V14.01,2013-02-09 03:53:00,
2013-02-08 19:58:00,35.4,21.7,29.84,North,351,4.0,4.9,57,0.00,,CLR,0.00,VWS V14.01,2013-02-09 03:58:00,
2013-02-08 20:03:00,35.1,21.8,29.84,NNW,347,4.5,4.9,58,0.00,,CLR,0.00,VWS V14.01,2013-02-09 04:03:00,
2013-02-08 20:08:00,34.7,21.9,29.84,NNW,347,4.9,5.4,59,0.00,,CLR,0.00,VWS V14.01,2013-02-09 04:08:00,
2013-02-08 20:14:00,34.3,22.3,29.84,East,79,5.4,5.8,61,0.00,,CLR,0.00,VWS V14.01,2013-02-09 04:14:00,
2013-02-08 20:19:00,34.2,22.1,29.84,ESE,117,5.4,5.8,61,0.00,,CLR,0.00,VWS V14.01,2013-02-09 04:19:00,
2013-02-08 20:25:00,33.8,22.2,29.84,ESE,118,4.5,5.4,62,0.00,,CLR,0.00,VWS V14.01,2013-02-09 04:25:00,
2013-02-08 20:31:00,33.6,22.4,29.84,ESE,118,5.4,5.8,63,0.00,,CLR,0.00,VWS V14.01,2013-02-09 04:31:00,
2013-02-08 20:36:00,33.6,22.8,29.84,ESE,118,4.9,5.4,64,0.00,,CLR,0.00,VWS V14.01,2013-02-09 04:36:00,
2013-02-08 20:41:00,33.3,22.0,29.84,ESE,117,4.9,4.9,63,0.00,,CLR,0.00,VWS V14.01,2013-02-09 04:41:00,
2013-02-08 20:46:00,32.9,22.1,29.84,ESE,117,4.5,4.9,64,0.00,,CLR,0.00,VWS V14.01,2013-02-09 04:46:00,
2013-02-08 20:52:00,32.7,22.6,29.84,ESE,117,5.4,5.8,66,0.00,,CLR,0.00,VWS V14.01,2013-02-09 04:52:00,
2013-02-08 20:57:00,32.5,22.5,29.84,SE,124,4.9,6.3,66,0.00,,CLR,0.00,VWS V14.01,2013-02-09 04:57:00,
2013-02-08 21:00:00,32.5,22.5,29.84,SE,125,5.8,6.3,66,0.00,,CLR,0.00,VWS V14.01,2013-02-09 05:00:00,
2013-02-08 21:01:00,32.4,22.3,29.84,ESE,115,4.9,5.8,66,0.00,,CLR,0.00,VWS V14.01,2013-02-09 05:01:00,
2013-02-08 21:03:00,32.2,22.1,29.84,ESE,115,4.9,5.4,66,0.00,,CLR,0.00,VWS V14.01,2013-02-09 05:03:00,
2013-02-08 21:08:00,32.4,22.6,29.84,ESE,115,4.0,4.5,67,0.00,,CLR,0.00,VWS V14.01,2013-02-09 05:08:00,
2013-02-08 21:13:00,32.5,22.8,29.84,ESE,114,4.5,4.5,67,0.00,,CLR,0.00,VWS V14.01,2013-02-09 05:13:00,
2013-02-08 21:18:00,32.2,22.1,29.84,ESE,116,5.4,5.4,66,0.00,,CLR,0.00,VWS V14.01,2013-02-09 05:18:00,
2013-02-08 21:23:00,31.5,21.4,29.84,ESE,115,4.5,5.4,66,0.00,,CLR,0.00,VWS V14.01,2013-02-09 05:23:00,
2013-02-08 21:28:00,31.5,21.8,29.84,ESE,114,4.9,4.9,67,0.00,,CLR,0.00,VWS V14.01,2013-02-09 05:28:00,
2013-02-08 21:29:00,31.5,21.8,29.84,ESE,115,4.9,5.4,67,0.00,,CLR,0.00,VWS V14.01,2013-02-09 05:29:00,
2013-02-08 21:35:00,31.1,21.8,29.84,ESE,115,5.4,5.8,68,0.00,,CLR,0.00,VWS V14.01,2013-02-09 05:35:00,
2013-02-08 21:40:00,30.9,22.0,29.84,ESE,115,4.9,5.4,69,0.00,,CLR,0.00,VWS V14.01,2013-02-09 05:40:00,
2013-02-08 21:45:00,30.9,22.0,29.84,ESE,116,4.9,5.8,69,0.00,,CLR,0.00,VWS V14.01,2013-02-09 05:45:00,
2013-02-08 21:50:00,30.7,22.1,29.84,ESE,115,4.9,6.3,70,0.00,,CLR,0.00,VWS V14.01,2013-02-09 05:50:00,
2013-02-08 21:56:00,30.7,22.1,29.84,ESE,108,4.5,5.4,70,0.00,,CLR,0.00,VWS V14.01,2013-02-09 05:56:00,
2013-02-08 22:01:00,30.4,21.4,29.84,ESE,117,4.9,5.8,69,0.00,,CLR,0.00,VWS V14.01,2013-02-09 06:01:00,
2013-02-08 22:06:00,30.4,21.8,29.84,ESE,122,4.9,6.3,70,0.00,,CLR,0.00,VWS V14.01,2013-02-09 06:06:00,
2013-02-08 22:11:00,30.6,22.0,29.84,ESE,118,5.4,6.3,70,0.00,,CLR,0.00,VWS V14.01,2013-02-09 06:11:00,
2013-02-08 22:16:00,30.4,21.8,29.84,ESE,117,5.4,5.8,70,0.00,,CLR,0.00,VWS V14.01,2013-02-09 06:16:00,
2013-02-08 22:21:00,30.4,21.8,29.84,ESE,118,4.5,5.4,70,0.00,,CLR,0.00,VWS V14.01,2013-02-09 06:21:00,
2013-02-08 22:26:00,30.4,21.8,29.84,ESE,118,4.5,5.4,70,0.00,,CLR,0.00,VWS V14.01,2013-02-09 06:26:00,
2013-02-08 22:31:00,30.2,21.6,29.84,ESE,117,4.5,4.9,70,0.00,,CLR,0.00,VWS V14.01,2013-02-09 06:31:00,
2013-02-08 22:36:00,30.2,21.6,29.84,ESE,117,4.5,4.9,70,0.00,,CLR,0.00,VWS V14.01,2013-02-09 06:36:00,
2013-02-08 22:41:00,30.4,21.8,29.84,ESE,116,5.4,5.4,70,0.00,,CLR,0.00,VWS V14.01,2013-02-09 06:41:00,
2013-02-08 22:46:00,30.0,21.1,29.84,ESE,117,4.9,5.4,69,0.00,,CLR,0.00,VWS V14.01,2013-02-09 06:46:00,
2013-02-08 22:51:00,30.2,21.3,29.84,ESE,116,4.5,4.9,69,0.00,,CLR,0.00,VWS V14.01,2013-02-09 06:51:00,
2013-02-08 22:56:00,30.0,21.1,29.84,ESE,117,5.4,5.4,69,0.00,,CLR,0.00,VWS V14.01,2013-02-09 06:56:00,
2013-02-08 23:02:00,30.0,21.1,29.84,ESE,117,4.9,4.9,69,0.00,,CLR,0.00,VWS V14.01,2013-02-09 07:02:00,
2013-02-08 23:07:00,30.0,21.1,29.84,ESE,117,4.0,5.4,69,0.00,,CLR,0.00,VWS V14.01,2013-02-09 07:07:00,
2013-02-08 23:12:00,30.2,21.3,29.84,ESE,115,3.6,5.4,69,0.00,,CLR,0.00,VWS V14.01,2013-02-09 07:12:00,
2013-02-08 23:17:00,29.7,20.4,29.84,ESE,116,4.0,4.5,68,0.00,,CLR,0.00,VWS V14.01,2013-02-09 07:17:00,
2013-02-08 23:22:00,29.8,20.6,29.84,ESE,115,4.5,4.5,68,0.00,,CLR,0.00,VWS V14.01,2013-02-09 07:22:00,
2013-02-08 23:27:00,29.7,20.8,29.84,ESE,115,4.5,4.5,69,0.00,,CLR,0.00,VWS V14.01,2013-02-09 07:27:00,
2013-02-08 23:32:00,29.5,20.6,29.84,ESE,116,3.6,4.9,69,0.00,,CLR,0.00,VWS V14.01,2013-02-09 07:32:00,
2013-02-08 23:37:00,29.1,20.9,29.84,ESE,115,4.0,4.5,71,0.00,,CLR,0.00,VWS V14.01,2013-02-09 07:37:00,
2013-02-08 23:42:00,28.9,20.7,29.84,ESE,115,4.0,5.4,71,0.00,,CLR,0.00,VWS V14.01,2013-02-09 07:42:00,
2013-02-08 23:47:00,29.1,21.2,29.84,ESE,115,4.0,4.5,72,0.00,,CLR,0.00,VWS V14.01,2013-02-09 07:47:00,
2013-02-08 23:52:00,29.1,21.2,29.84,ESE,116,5.4,5.4,72,0.00,,CLR,0.00,VWS V14.01,2013-02-09 07:52:00,
2013-02-08 23:57:00,29.1,21.2,29.84,ESE,116,4.5,5.4,72,0.00,,CLR,0.00,VWS V14.01,2013-02-09 07:57:00,